Year,Month,Day,Hour,Minute,Value (Times are PST for temperature in C)
2008,08,21,00,00,13.10
2008,08,21,00,01,13.10
2008,08,21,00,02,13.10
2008,08,21,00,03,13.10
2008,08,21,00,04,13.10
2008,08,21,00,05,13.10
2008,08,21,00,06,13.10
2008,08,21,00,07,13.00
2008,08,21,00,08,13.00
2008,08,21,00,09,13.00
2008,08,21,00,10,13.00
2008,08,21,00,11,12.90
2008,08,21,00,12,12.90
2008,08,21,00,13,12.90
2008,08,21,00,14,12.90
2008,08,21,00,15,12.90
2008,08,21,00,16,12.80
2008,08,21,00,17,12.80
2008,08,21,00,18,12.80
2008,08,21,00,19,12.70
2008,08,21,00,20,12.70
2008,08,21,00,21,12.70
2008,08,21,00,22,12.70
2008,08,21,00,23,12.70
2008,08,21,00,24,12.60
2008,08,21,00,25,12.60
2008,08,21,00,26,12.60
2008,08,21,00,27,12.60
2008,08,21,00,28,12.60
2008,08,21,00,29,12.60
2008,08,21,00,30,12.60
2008,08,21,00,31,12.50
2008,08,21,00,32,12.50
2008,08,21,00,33,12.50
2008,08,21,00,34,12.50
2008,08,21,00,35,12.50
2008,08,21,00,36,12.50
2008,08,21,00,37,12.50
2008,08,21,00,38,12.50
2008,08,21,00,39,12.50
2008,08,21,00,40,12.50
2008,08,21,00,41,12.50
2008,08,21,00,42,12.50
2008,08,21,00,43,12.50
2008,08,21,00,44,12.50
2008,08,21,00,45,12.50
2008,08,21,00,46,12.50
2008,08,21,00,47,12.40
2008,08,21,00,48,12.40
2008,08,21,00,49,12.40
2008,08,21,00,50,12.40
2008,08,21,00,51,12.40
2008,08,21,00,52,12.40
2008,08,21,00,53,12.40
2008,08,21,00,54,12.40
2008,08,21,00,55,12.40
2008,08,21,00,56,12.40
2008,08,21,00,57,12.40
2008,08,21,00,58,12.40
2008,08,21,00,59,12.40
2008,08,21,01,00,12.40
2008,08,21,01,01,12.40
2008,08,21,01,02,12.40
2008,08,21,01,03,12.40
2008,08,21,01,04,12.40
2008,08,21,01,05,12.40
2008,08,21,01,06,12.40
2008,08,21,01,07,12.40
2008,08,21,01,08,12.40
2008,08,21,01,09,12.50
2008,08,21,01,10,12.50
2008,08,21,01,11,12.50
2008,08,21,01,12,12.60
2008,08,21,01,13,12.60
2008,08,21,01,14,12.60
2008,08,21,01,15,12.70
2008,08,21,01,16,12.70
2008,08,21,01,17,12.70
2008,08,21,01,18,12.70
2008,08,21,01,19,12.70
2008,08,21,01,20,12.70
2008,08,21,01,21,12.80
2008,08,21,01,22,12.80
2008,08,21,01,23,12.80
2008,08,21,01,24,12.80
2008,08,21,01,25,12.80
2008,08,21,01,26,12.80
2008,08,21,01,27,12.80
2008,08,21,01,28,12.80
2008,08,21,01,29,12.80
2008,08,21,01,30,12.80
2008,08,21,01,31,12.80
2008,08,21,01,32,12.80
2008,08,21,01,33,12.80
2008,08,21,01,34,12.80
2008,08,21,01,35,12.80
2008,08,21,01,36,12.80
2008,08,21,01,37,12.80
2008,08,21,01,38,12.80
2008,08,21,01,39,12.80
2008,08,21,01,40,12.80
2008,08,21,01,41,12.70
2008,08,21,01,42,12.70
2008,08,21,01,43,12.70
2008,08,21,01,44,12.70
2008,08,21,01,45,12.70
2008,08,21,01,46,12.70
2008,08,21,01,47,12.70
2008,08,21,01,48,12.70
2008,08,21,01,49,12.70
2008,08,21,01,50,12.60
2008,08,21,01,51,12.60
2008,08,21,01,52,12.60
2008,08,21,01,53,12.60
2008,08,21,01,54,12.60
2008,08,21,01,55,12.60
2008,08,21,01,56,12.60
2008,08,21,01,57,12.60
2008,08,21,01,58,12.60
2008,08,21,01,59,12.60
2008,08,21,02,00,12.60
2008,08,21,02,01,12.60
2008,08,21,02,02,12.60
2008,08,21,02,03,12.70
2008,08,21,02,04,12.70
2008,08,21,02,05,12.70
2008,08,21,02,06,12.70
2008,08,21,02,07,12.70
2008,08,21,02,08,12.70
2008,08,21,02,09,12.80
2008,08,21,02,10,12.80
2008,08,21,02,11,12.80
2008,08,21,02,12,12.80
2008,08,21,02,13,12.80
2008,08,21,02,14,12.90
2008,08,21,02,15,12.90
2008,08,21,02,16,12.90
2008,08,21,02,17,12.90
2008,08,21,02,18,12.90
2008,08,21,02,19,13.00
2008,08,21,02,20,13.00
2008,08,21,02,21,13.10
2008,08,21,02,22,13.10
2008,08,21,02,23,13.10
2008,08,21,02,24,13.10
2008,08,21,02,25,13.10
2008,08,21,02,26,13.10
2008,08,21,02,27,13.10
2008,08,21,02,28,13.10
2008,08,21,02,29,13.10
2008,08,21,02,30,13.10
2008,08,21,02,31,13.10
2008,08,21,02,32,13.10
2008,08,21,02,33,13.10
2008,08,21,02,34,13.10
2008,08,21,02,35,13.10
2008,08,21,02,36,13.10
2008,08,21,02,37,13.10
2008,08,21,02,38,13.10
2008,08,21,02,39,13.10
2008,08,21,02,40,13.00
2008,08,21,02,41,13.00
2008,08,21,02,42,13.00
2008,08,21,02,43,13.00
2008,08,21,02,44,12.90
2008,08,21,02,45,12.90
2008,08,21,02,46,12.80
2008,08,21,02,47,12.80
2008,08,21,02,48,12.80
2008,08,21,02,49,12.80
2008,08,21,02,50,12.70
2008,08,21,02,51,12.70
2008,08,21,02,52,12.70
2008,08,21,02,53,12.60
2008,08,21,02,54,12.60
2008,08,21,02,55,12.60
2008,08,21,02,56,12.60
2008,08,21,02,57,12.60
2008,08,21,02,58,12.50
2008,08,21,02,59,12.50
2008,08,21,03,00,12.50
2008,08,21,03,01,12.50
2008,08,21,03,02,12.40
2008,08,21,03,03,12.40
2008,08,21,03,04,12.40
2008,08,21,03,05,12.40
2008,08,21,03,06,12.40
2008,08,21,03,07,12.30
2008,08,21,03,08,12.30
2008,08,21,03,09,12.30
2008,08,21,03,10,12.30
2008,08,21,03,11,12.30
2008,08,21,03,12,12.30
2008,08,21,03,13,12.30
2008,08,21,03,14,12.30
2008,08,21,03,15,12.30
2008,08,21,03,16,12.30
2008,08,21,03,17,12.30
2008,08,21,03,18,12.30
2008,08,21,03,19,12.20
2008,08,21,03,20,12.20
2008,08,21,03,21,12.20
2008,08,21,03,22,12.20
2008,08,21,03,23,12.20
2008,08,21,03,24,12.20
2008,08,21,03,25,12.20
2008,08,21,03,26,12.20
2008,08,21,03,27,12.20
2008,08,21,03,28,12.20
2008,08,21,03,29,12.20
2008,08,21,03,30,12.10
2008,08,21,03,31,12.20
2008,08,21,03,32,12.10
2008,08,21,03,33,12.10
2008,08,21,03,34,12.10
2008,08,21,03,35,12.10
2008,08,21,03,36,12.10
2008,08,21,03,37,12.10
2008,08,21,03,38,12.10
2008,08,21,03,39,12.10
2008,08,21,03,40,12.10
2008,08,21,03,41,12.10
2008,08,21,03,42,12.20
2008,08,21,03,43,12.20
2008,08,21,03,44,12.20
2008,08,21,03,45,12.20
2008,08,21,03,46,12.20
2008,08,21,03,47,12.20
2008,08,21,03,48,12.20
2008,08,21,03,49,12.20
2008,08,21,03,50,12.20
2008,08,21,03,51,12.20
2008,08,21,03,52,12.30
2008,08,21,03,53,12.30
2008,08,21,03,54,12.30
2008,08,21,03,55,12.30
2008,08,21,03,56,12.30
2008,08,21,03,57,12.30
2008,08,21,03,58,12.40
2008,08,21,03,59,12.40
2008,08,21,04,00,12.40
2008,08,21,04,01,12.40
2008,08,21,04,02,12.40
2008,08,21,04,03,12.50
2008,08,21,04,04,12.50
2008,08,21,04,06,12.60
2008,08,21,04,07,12.60
2008,08,21,04,38,12.90
2008,08,21,04,52,12.90
2008,08,21,05,06,12.90
2008,08,21,05,21,12.80
2008,08,21,05,35,12.70
2008,08,21,05,46,12.70
2008,08,21,05,59,12.70
2008,08,21,06,11,12.70
2008,08,21,06,23,12.70
2008,08,21,06,39,12.60
2008,08,21,06,53,12.50
2008,08,21,07,11,12.40
2008,08,21,07,22,12.50
2008,08,21,07,36,12.70
2008,08,21,07,48,12.90
2008,08,21,08,04,13.10
2008,08,21,08,19,13.10
2008,08,21,08,37,13.60
2008,08,21,08,54,13.60
2008,08,21,09,05,13.50
2008,08,21,09,19,13.70
2008,08,21,09,31,14.20
2008,08,21,09,41,14.30
2008,08,21,09,54,14.30
2008,08,21,09,55,14.20
2008,08,21,09,56,14.20
2008,08,21,09,57,14.20
2008,08,21,09,58,14.20
2008,08,21,09,59,14.20
2008,08,21,10,00,14.20
2008,08,21,10,01,14.20
2008,08,21,10,02,14.20
2008,08,21,10,03,14.20
2008,08,21,10,04,14.20
2008,08,21,10,05,14.20
2008,08,21,10,06,14.20
2008,08,21,10,07,14.30
2008,08,21,10,08,14.30
2008,08,21,10,09,14.30
2008,08,21,10,10,14.40
2008,08,21,10,11,14.50
2008,08,21,10,12,14.50
2008,08,21,10,13,14.60
2008,08,21,10,14,14.70
2008,08,21,10,15,14.80
2008,08,21,10,16,14.80
2008,08,21,10,17,14.90
2008,08,21,10,18,15.00
2008,08,21,10,19,15.00
2008,08,21,10,20,15.00
2008,08,21,10,21,15.00
2008,08,21,10,22,15.10
2008,08,21,10,23,15.20
2008,08,21,10,24,15.30
2008,08,21,10,25,15.40
2008,08,21,10,26,15.50
2008,08,21,10,27,15.60
2008,08,21,10,28,15.70
2008,08,21,10,29,15.80
2008,08,21,10,30,15.90
2008,08,21,10,31,16.00
2008,08,21,10,32,16.10
2008,08,21,10,33,16.20
2008,08,21,10,34,16.30
2008,08,21,10,35,16.40
2008,08,21,10,36,16.50
2008,08,21,10,37,16.50
2008,08,21,10,38,16.60
2008,08,21,10,39,16.60
2008,08,21,10,40,16.60
2008,08,21,10,41,16.60
2008,08,21,10,42,16.60
2008,08,21,10,43,16.60
2008,08,21,10,44,16.60
2008,08,21,10,45,16.60
2008,08,21,10,46,16.50
2008,08,21,10,47,16.40
2008,08,21,10,48,16.40
2008,08,21,10,49,16.30
2008,08,21,10,50,16.30
2008,08,21,10,51,16.40
2008,08,21,10,52,16.40
2008,08,21,10,53,16.40
2008,08,21,10,54,16.40
2008,08,21,10,55,16.40
2008,08,21,10,56,16.40
2008,08,21,10,57,16.40
2008,08,21,10,58,16.40
2008,08,21,10,59,16.40
2008,08,21,11,00,16.30
2008,08,21,11,01,16.30
2008,08,21,11,02,16.30
2008,08,21,11,03,16.40
2008,08,21,11,04,16.40
2008,08,21,11,05,16.30
2008,08,21,11,06,16.20
2008,08,21,11,07,16.20
2008,08,21,11,08,16.10
2008,08,21,11,09,16.20
2008,08,21,11,10,16.20
2008,08,21,11,11,16.20
2008,08,21,11,12,16.30
2008,08,21,11,13,16.30
2008,08,21,11,14,16.30
2008,08,21,11,15,16.30
2008,08,21,11,16,16.30
2008,08,21,11,17,16.40
2008,08,21,11,18,16.40
2008,08,21,11,19,16.50
2008,08,21,11,20,16.50
2008,08,21,11,21,16.50
2008,08,21,11,22,16.50
2008,08,21,11,23,16.50
2008,08,21,11,24,16.60
2008,08,21,11,25,16.60
2008,08,21,11,26,16.70
2008,08,21,11,27,16.70
2008,08,21,11,28,16.80
2008,08,21,11,29,17.00
2008,08,21,11,30,17.20
2008,08,21,11,31,17.40
2008,08,21,11,32,17.60
2008,08,21,11,33,17.70
2008,08,21,11,34,17.90
2008,08,21,11,35,18.00
2008,08,21,11,36,18.10
2008,08,21,11,37,18.10
2008,08,21,11,38,18.00
2008,08,21,11,39,18.00
2008,08,21,11,40,17.90
2008,08,21,11,41,17.80
2008,08,21,11,42,17.50
2008,08,21,11,43,17.30
2008,08,21,11,44,17.20
2008,08,21,11,45,17.10
2008,08,21,11,46,17.00
2008,08,21,11,47,16.80
2008,08,21,11,48,16.70
2008,08,21,11,49,16.60
2008,08,21,11,50,16.60
2008,08,21,11,51,16.60
2008,08,21,11,52,16.60
2008,08,21,11,53,16.70
2008,08,21,11,54,16.70
2008,08,21,11,55,16.70
2008,08,21,11,56,16.70
2008,08,21,11,57,16.80
2008,08,21,11,58,16.80
2008,08,21,11,59,16.90
2008,08,21,12,00,16.90
2008,08,21,12,01,17.00
2008,08,21,12,02,17.00
2008,08,21,12,03,17.10
2008,08,21,12,04,17.10
2008,08,21,12,05,17.10
2008,08,21,12,06,17.10
2008,08,21,12,07,17.10
2008,08,21,12,08,17.10
2008,08,21,12,09,17.10
2008,08,21,12,10,17.00
2008,08,21,12,11,17.00
2008,08,21,12,12,17.10
2008,08,21,12,13,17.10
2008,08,21,12,14,17.20
2008,08,21,12,15,17.30
2008,08,21,12,16,17.30
2008,08,21,12,17,17.10
2008,08,21,12,18,16.90
2008,08,21,12,19,16.70
2008,08,21,12,20,16.50
2008,08,21,12,21,16.30
2008,08,21,12,22,16.20
2008,08,21,12,23,16.30
2008,08,21,12,24,16.30
2008,08,21,12,25,16.20
2008,08,21,12,26,16.20
2008,08,21,12,27,16.20
2008,08,21,12,28,16.20
2008,08,21,12,29,16.20
2008,08,21,12,30,16.30
2008,08,21,12,31,16.30
2008,08,21,12,32,16.30
2008,08,21,12,33,16.40
2008,08,21,12,34,16.60
2008,08,21,12,35,16.70
2008,08,21,12,36,16.90
2008,08,21,12,37,17.00
2008,08,21,12,38,17.00
2008,08,21,12,39,17.20
2008,08,21,12,40,17.20
2008,08,21,12,41,17.30
2008,08,21,12,42,17.30
2008,08,21,12,43,17.40
2008,08,21,12,44,17.40
2008,08,21,12,45,17.40
2008,08,21,12,46,17.50
2008,08,21,12,47,17.60
2008,08,21,12,48,17.70
2008,08,21,12,49,17.80
2008,08,21,12,50,17.80
2008,08,21,12,51,17.90
2008,08,21,12,52,17.90
2008,08,21,12,53,17.90
2008,08,21,12,54,17.80
2008,08,21,12,55,17.80
2008,08,21,12,56,17.80
2008,08,21,12,57,17.80
2008,08,21,12,58,17.70
2008,08,21,12,59,17.50
2008,08,21,13,00,17.40
2008,08,21,13,01,17.40
2008,08,21,13,02,17.40
2008,08,21,13,03,17.50
2008,08,21,13,04,17.50
2008,08,21,13,05,17.40
2008,08,21,13,06,17.40
2008,08,21,13,07,17.30
2008,08,21,13,08,17.30
2008,08,21,13,09,17.40
2008,08,21,13,10,17.40
2008,08,21,13,11,17.50
2008,08,21,13,12,17.30
2008,08,21,13,13,17.20
2008,08,21,13,14,17.20
2008,08,21,13,15,17.20
2008,08,21,13,16,17.20
2008,08,21,13,17,17.30
2008,08,21,13,18,17.30
2008,08,21,13,19,17.40
2008,08,21,13,20,17.60
2008,08,21,13,21,17.60
2008,08,21,13,22,17.70
2008,08,21,13,23,17.80
2008,08,21,13,24,18.00
2008,08,21,13,25,18.10
2008,08,21,13,26,18.10
2008,08,21,13,27,18.20
2008,08,21,13,28,18.30
2008,08,21,13,29,18.20
2008,08,21,13,30,18.20
2008,08,21,13,31,18.30
2008,08,21,13,32,18.30
2008,08,21,13,33,18.30
2008,08,21,13,34,18.30
2008,08,21,13,35,18.20
2008,08,21,13,36,18.20
2008,08,21,13,37,18.20
2008,08,21,13,38,18.20
2008,08,21,13,39,18.20
2008,08,21,13,40,18.20
2008,08,21,13,41,18.30
2008,08,21,13,42,18.40
2008,08,21,13,43,18.50
2008,08,21,13,44,18.50
2008,08,21,13,45,18.50
2008,08,21,13,46,18.60
2008,08,21,13,47,18.60
2008,08,21,13,48,18.50
2008,08,21,13,49,18.40
2008,08,21,13,50,18.20
2008,08,21,13,51,18.00
2008,08,21,13,52,17.90
2008,08,21,13,53,17.80
2008,08,21,13,54,17.60
2008,08,21,13,55,17.40
2008,08,21,13,56,17.40
2008,08,21,13,57,17.30
2008,08,21,13,58,17.20
2008,08,21,13,59,17.10
2008,08,21,14,00,17.10
2008,08,21,14,01,17.20
2008,08,21,14,02,17.20
2008,08,21,14,03,17.20
2008,08,21,14,04,17.10
2008,08,21,14,05,17.10
2008,08,21,14,06,17.10
2008,08,21,14,07,17.20
2008,08,21,14,08,17.20
2008,08,21,14,09,17.10
2008,08,21,14,10,17.10
2008,08,21,14,11,17.10
2008,08,21,14,12,17.10
2008,08,21,14,13,17.10
2008,08,21,14,14,17.20
2008,08,21,14,15,17.20
2008,08,21,14,16,17.10
2008,08,21,14,17,17.10
2008,08,21,14,18,17.10
2008,08,21,14,19,17.20
2008,08,21,14,20,17.20
2008,08,21,14,21,17.20
2008,08,21,14,22,17.20
2008,08,21,14,23,17.20
2008,08,21,14,24,17.30
2008,08,21,14,25,17.40
2008,08,21,14,26,17.50
2008,08,21,14,27,17.50
2008,08,21,14,28,17.50
2008,08,21,14,29,17.40
2008,08,21,14,30,17.20
2008,08,21,14,31,17.20
2008,08,21,14,32,17.10
2008,08,21,14,33,17.20
2008,08,21,14,34,17.20
2008,08,21,14,35,17.20
2008,08,21,14,36,17.10
2008,08,21,14,37,17.10
2008,08,21,14,38,17.10
2008,08,21,14,39,17.10
2008,08,21,14,40,17.20
2008,08,21,14,41,17.20
2008,08,21,14,42,17.20
2008,08,21,14,43,17.20
2008,08,21,14,44,17.20
2008,08,21,14,45,17.20
2008,08,21,14,46,17.20
2008,08,21,14,47,17.20
2008,08,21,14,48,17.20
2008,08,21,14,49,17.30
2008,08,21,14,50,17.20
2008,08,21,14,51,17.30
2008,08,21,14,52,17.20
2008,08,21,14,53,17.10
2008,08,21,14,54,17.10
2008,08,21,14,55,17.20
2008,08,21,14,56,17.10
2008,08,21,14,57,17.20
2008,08,21,14,58,17.20
2008,08,21,14,59,17.20
2008,08,21,15,00,17.30
2008,08,21,15,01,17.30
2008,08,21,15,02,17.30
2008,08,21,15,03,17.40
2008,08,21,15,04,17.30
2008,08,21,15,05,17.40
2008,08,21,15,06,17.40
2008,08,21,15,07,17.40
2008,08,21,15,08,17.30
2008,08,21,15,09,17.30
2008,08,21,15,10,17.40
2008,08,21,15,11,17.40
2008,08,21,15,12,17.50
2008,08,21,15,13,17.60
2008,08,21,15,14,17.70
2008,08,21,15,15,17.70
2008,08,21,15,16,17.70
2008,08,21,15,17,17.70
2008,08,21,15,18,17.70
2008,08,21,15,19,17.70
2008,08,21,15,20,17.90
2008,08,21,15,21,18.00
2008,08,21,15,22,18.20
2008,08,21,15,23,18.50
2008,08,21,15,24,18.60
2008,08,21,15,25,18.60
2008,08,21,15,26,18.70
2008,08,21,15,27,18.70
2008,08,21,15,28,18.80
2008,08,21,15,29,18.80
2008,08,21,15,30,18.80
2008,08,21,15,31,18.80
2008,08,21,15,32,18.70
2008,08,21,15,33,18.60
2008,08,21,15,34,18.50
2008,08,21,15,35,18.50
2008,08,21,15,36,18.50
2008,08,21,15,37,18.40
2008,08,21,15,38,18.30
2008,08,21,15,39,18.20
2008,08,21,15,40,18.20
2008,08,21,15,41,18.20
2008,08,21,15,42,18.20
2008,08,21,15,43,18.30
2008,08,21,15,44,18.30
2008,08,21,15,45,18.30
2008,08,21,15,46,18.30
2008,08,21,15,47,18.40
2008,08,21,15,48,18.40
2008,08,21,15,49,18.30
2008,08,21,15,50,18.30
2008,08,21,15,51,18.20
2008,08,21,15,52,18.20
2008,08,21,15,53,18.20
2008,08,21,15,54,18.10
2008,08,21,15,55,18.10
2008,08,21,15,56,18.00
2008,08,21,15,57,18.00
2008,08,21,15,58,18.00
2008,08,21,15,59,18.00
2008,08,21,16,00,17.90
2008,08,21,16,01,17.90
2008,08,21,16,02,17.90
2008,08,21,16,03,17.90
2008,08,21,16,04,18.10
2008,08,21,16,05,18.10
2008,08,21,16,06,18.10
2008,08,21,16,07,18.00
2008,08,21,16,08,18.10
2008,08,21,16,09,18.20
2008,08,21,16,10,18.30
2008,08,21,16,11,18.40
2008,08,21,16,12,18.60
2008,08,21,16,13,18.60
2008,08,21,16,14,18.60
2008,08,21,16,15,18.70
2008,08,21,16,16,18.80
2008,08,21,16,17,18.90
2008,08,21,16,18,19.00
2008,08,21,16,19,19.00
2008,08,21,16,20,19.00
2008,08,21,16,21,19.10
2008,08,21,16,22,19.30
2008,08,21,16,23,19.40
2008,08,21,16,24,19.50
2008,08,21,16,25,19.50
2008,08,21,16,26,19.50
2008,08,21,16,27,19.40
2008,08,21,16,28,19.40
2008,08,21,16,29,19.30
2008,08,21,16,30,19.20
2008,08,21,16,31,19.20
2008,08,21,16,32,19.10
2008,08,21,16,33,19.10
2008,08,21,16,34,19.00
2008,08,21,16,35,18.90
2008,08,21,16,36,18.90
2008,08,21,16,37,18.80
2008,08,21,16,38,18.70
2008,08,21,16,39,18.60
2008,08,21,16,40,18.40
2008,08,21,16,41,18.30
2008,08,21,16,42,18.30
2008,08,21,16,43,18.30
2008,08,21,16,44,18.30
2008,08,21,16,45,18.20
2008,08,21,16,46,18.10
2008,08,21,16,47,17.90
2008,08,21,16,48,17.70
2008,08,21,16,49,17.50
2008,08,21,16,50,17.40
2008,08,21,16,51,17.30
2008,08,21,16,52,17.30
2008,08,21,16,53,17.20
2008,08,21,16,54,17.10
2008,08,21,16,55,17.10
2008,08,21,16,56,16.90
2008,08,21,16,57,16.90
2008,08,21,16,58,16.90
2008,08,21,16,59,16.80
2008,08,21,17,00,16.80
2008,08,21,17,01,16.70
2008,08,21,17,02,16.70
2008,08,21,17,03,16.60
2008,08,21,17,04,16.60
2008,08,21,17,05,16.70
2008,08,21,17,06,16.70
2008,08,21,17,07,16.70
2008,08,21,17,08,16.60
2008,08,21,17,09,16.70
2008,08,21,17,10,16.70
2008,08,21,17,11,16.70
2008,08,21,17,12,16.70
2008,08,21,17,13,16.80
2008,08,21,17,14,16.80
2008,08,21,17,15,16.70
2008,08,21,17,16,16.80
2008,08,21,17,17,16.70
2008,08,21,17,18,16.70
2008,08,21,17,19,16.70
2008,08,21,17,20,16.70
2008,08,21,17,21,16.70
2008,08,21,17,22,16.70
2008,08,21,17,23,16.60
2008,08,21,17,24,16.50
2008,08,21,17,25,16.40
2008,08,21,17,26,16.30
2008,08,21,17,27,16.20
2008,08,21,17,28,16.20
2008,08,21,17,29,16.30
2008,08,21,17,30,16.40
2008,08,21,17,31,16.50
2008,08,21,17,32,16.60
2008,08,21,17,33,16.60
2008,08,21,17,34,16.60
2008,08,21,17,35,16.60
2008,08,21,17,36,16.60
2008,08,21,17,37,16.60
2008,08,21,17,38,16.60
2008,08,21,17,39,16.50
2008,08,21,17,40,16.40
2008,08,21,17,41,16.40
2008,08,21,17,42,16.40
2008,08,21,17,43,16.50
2008,08,21,17,44,16.50
2008,08,21,17,45,16.60
2008,08,21,17,46,16.50
2008,08,21,17,47,16.50
2008,08,21,17,48,16.50
2008,08,21,17,49,16.40
2008,08,21,17,50,16.40
2008,08,21,17,51,16.30
2008,08,21,17,52,16.20
2008,08,21,17,53,16.10
2008,08,21,17,54,16.10
2008,08,21,17,55,16.10
2008,08,21,17,56,16.20
2008,08,21,17,57,16.20
2008,08,21,17,58,16.20
2008,08,21,17,59,16.20
2008,08,21,18,00,16.30
2008,08,21,18,01,16.30
2008,08,21,18,02,16.30
2008,08,21,18,03,16.30
2008,08,21,18,04,16.20
2008,08,21,18,05,16.20
2008,08,21,18,06,16.20
2008,08,21,18,07,16.10
2008,08,21,18,08,16.00
2008,08,21,18,09,16.00
2008,08,21,18,10,16.10
2008,08,21,18,11,16.00
2008,08,21,18,12,16.00
2008,08,21,18,13,16.00
2008,08,21,18,14,15.90
2008,08,21,18,15,15.90
2008,08,21,18,16,15.80
2008,08,21,18,17,15.70
2008,08,21,18,18,15.60
2008,08,21,18,19,15.50
2008,08,21,18,20,15.40
2008,08,21,18,21,15.40
2008,08,21,18,22,15.30
2008,08,21,18,23,15.30
2008,08,21,18,24,15.20
2008,08,21,18,25,15.20
2008,08,21,18,26,15.10
2008,08,21,18,27,15.10
2008,08,21,18,28,15.10
2008,08,21,18,29,15.00
2008,08,21,18,30,15.00
2008,08,21,18,31,15.00
2008,08,21,18,32,15.00
2008,08,21,18,33,15.00
2008,08,21,18,34,15.00
2008,08,21,18,35,15.00
2008,08,21,18,36,15.00
2008,08,21,18,37,15.00
2008,08,21,18,38,15.00
2008,08,21,18,39,15.00
2008,08,21,18,40,15.00
2008,08,21,18,41,14.90
2008,08,21,18,42,14.80
2008,08,21,18,43,14.70
2008,08,21,18,44,14.70
2008,08,21,18,45,14.60
2008,08,21,18,46,14.40
2008,08,21,18,47,14.40
2008,08,21,18,48,14.30
2008,08,21,18,49,14.20
2008,08,21,18,50,14.20
2008,08,21,18,51,14.20
2008,08,21,18,52,14.20
2008,08,21,18,53,14.20
2008,08,21,18,54,14.20
2008,08,21,18,55,14.20
2008,08,21,18,56,14.30
2008,08,21,18,57,14.40
2008,08,21,18,58,14.50
2008,08,21,18,59,14.60
2008,08,21,19,00,14.70
2008,08,21,19,01,14.70
2008,08,21,19,02,14.70
2008,08,21,19,03,14.70
2008,08,21,19,04,14.70
2008,08,21,19,05,14.70
2008,08,21,19,06,14.70
2008,08,21,19,07,14.70
2008,08,21,19,08,14.70
2008,08,21,19,09,14.70
2008,08,21,19,10,14.70
2008,08,21,19,11,14.70
2008,08,21,19,12,14.60
2008,08,21,19,13,14.60
2008,08,21,19,14,14.60
2008,08,21,19,15,14.60
2008,08,21,19,16,14.60
2008,08,21,19,17,14.60
2008,08,21,19,18,14.50
2008,08,21,19,19,14.50
2008,08,21,19,20,14.50
2008,08,21,19,21,14.50
2008,08,21,19,22,14.50
2008,08,21,19,23,14.50
2008,08,21,19,24,14.50
2008,08,21,19,25,14.50
2008,08,21,19,26,14.40
2008,08,21,19,27,14.40
2008,08,21,19,28,14.40
2008,08,21,19,29,14.40
2008,08,21,19,30,14.40
2008,08,21,19,31,14.40
2008,08,21,19,32,14.40
2008,08,21,19,33,14.40
2008,08,21,19,34,14.30
2008,08,21,19,35,14.30
2008,08,21,19,36,14.30
2008,08,21,19,37,14.30
2008,08,21,19,38,14.20
2008,08,21,19,39,14.20
2008,08,21,19,40,14.10
2008,08,21,19,41,14.10
2008,08,21,19,42,14.00
2008,08,21,19,43,14.00
2008,08,21,19,44,13.90
2008,08,21,19,45,13.90
2008,08,21,19,46,13.90
2008,08,21,19,47,13.80
2008,08,21,19,48,13.80
2008,08,21,19,49,13.80
2008,08,21,19,50,13.80
2008,08,21,19,51,13.80
2008,08,21,19,52,13.70
2008,08,21,19,53,13.70
2008,08,21,19,54,13.70
2008,08,21,19,55,13.70
2008,08,21,19,56,13.60
2008,08,21,19,57,13.60
2008,08,21,19,58,13.60
2008,08,21,19,59,13.60
2008,08,21,20,00,13.50
2008,08,21,20,01,13.50
2008,08,21,20,02,13.50
2008,08,21,20,03,13.50
2008,08,21,20,04,13.40
2008,08,21,20,05,13.40
2008,08,21,20,06,13.40
2008,08,21,20,07,13.40
2008,08,21,20,08,13.40
2008,08,21,20,09,13.30
2008,08,21,20,10,13.30
2008,08,21,20,11,13.30
2008,08,21,20,12,13.30
2008,08,21,20,13,13.30
2008,08,21,20,14,13.30
2008,08,21,20,15,13.20
2008,08,21,20,16,13.20
2008,08,21,20,17,13.20
2008,08,21,20,18,13.20
2008,08,21,20,19,13.20
2008,08,21,20,20,13.20
2008,08,21,20,21,13.20
2008,08,21,20,22,13.20
2008,08,21,20,23,13.20
2008,08,21,20,24,13.20
2008,08,21,20,25,13.20
2008,08,21,20,26,13.10
2008,08,21,20,27,13.10
2008,08,21,20,28,13.10
2008,08,21,20,29,13.10
2008,08,21,20,30,13.10
2008,08,21,20,31,13.10
2008,08,21,20,32,13.10
2008,08,21,20,33,13.10
2008,08,21,20,34,13.10
2008,08,21,20,35,13.10
2008,08,21,20,36,13.00
2008,08,21,20,37,13.00
2008,08,21,20,38,13.00
2008,08,21,20,39,13.00
2008,08,21,20,40,13.00
2008,08,21,20,41,13.00
2008,08,21,20,42,13.00
2008,08,21,20,43,13.00
2008,08,21,20,44,12.90
2008,08,21,20,45,12.90
2008,08,21,20,46,12.90
2008,08,21,20,47,12.90
2008,08,21,20,48,12.90
2008,08,21,20,49,12.90
2008,08,21,20,50,12.90
2008,08,21,20,51,12.80
2008,08,21,20,52,12.80
2008,08,21,20,53,12.80
2008,08,21,20,54,12.80
2008,08,21,20,55,12.80
2008,08,21,20,56,12.80
2008,08,21,20,57,12.80
2008,08,21,20,58,12.80
2008,08,21,20,59,12.80
2008,08,21,21,00,12.80
2008,08,21,21,01,12.80
2008,08,21,21,02,12.80
2008,08,21,21,03,12.80
2008,08,21,21,04,12.80
2008,08,21,21,05,12.80
2008,08,21,21,06,12.80
2008,08,21,21,07,12.80
2008,08,21,21,08,12.80
2008,08,21,21,09,12.80
2008,08,21,21,10,12.80
2008,08,21,21,11,12.80
2008,08,21,21,12,12.80
2008,08,21,21,13,12.80
2008,08,21,21,14,12.80
2008,08,21,21,15,12.80
2008,08,21,21,16,12.80
2008,08,21,21,17,12.80
2008,08,21,21,18,12.80
2008,08,21,21,19,12.80
2008,08,21,21,20,12.80
2008,08,21,21,21,12.80
2008,08,21,21,22,12.80
2008,08,21,21,23,12.80
2008,08,21,21,24,12.80
2008,08,21,21,25,12.80
2008,08,21,21,26,12.80
2008,08,21,21,27,12.80
2008,08,21,21,28,12.80
2008,08,21,21,29,12.80
2008,08,21,21,30,12.80
2008,08,21,21,31,12.80
2008,08,21,21,32,12.80
2008,08,21,21,33,12.80
2008,08,21,21,34,12.80
2008,08,21,21,35,12.80
2008,08,21,21,36,12.80
2008,08,21,21,37,12.80
2008,08,21,21,38,12.80
2008,08,21,21,39,12.80
2008,08,21,21,40,12.80
2008,08,21,21,41,12.80
2008,08,21,21,42,12.80
2008,08,21,21,43,12.80
2008,08,21,21,44,12.80
2008,08,21,21,45,12.80
2008,08,21,21,46,12.80
2008,08,21,21,47,12.80
2008,08,21,21,48,12.80
2008,08,21,21,49,12.90
2008,08,21,21,50,12.90
2008,08,21,21,51,12.90
2008,08,21,21,52,12.90
2008,08,21,21,53,12.90
2008,08,21,21,54,12.90
2008,08,21,21,55,12.90
2008,08,21,21,56,13.00
2008,08,21,21,57,13.00
2008,08,21,21,58,13.00
2008,08,21,21,59,13.00
2008,08,21,22,00,13.10
2008,08,21,22,01,13.10
2008,08,21,22,02,13.10
2008,08,21,22,03,13.10
2008,08,21,22,04,13.10
2008,08,21,22,05,13.10
2008,08,21,22,06,13.20
2008,08,21,22,07,13.20
2008,08,21,22,08,13.20
2008,08,21,22,09,13.20
2008,08,21,22,10,13.20
2008,08,21,22,11,13.20
2008,08,21,22,12,13.30
2008,08,21,22,13,13.30
2008,08,21,22,14,13.30
2008,08,21,22,15,13.30
2008,08,21,22,16,13.40
2008,08,21,22,17,13.40
2008,08,21,22,18,13.40
2008,08,21,22,19,13.40
2008,08,21,22,20,13.40
2008,08,21,22,21,13.40
2008,08,21,22,22,13.40
2008,08,21,22,23,13.30
2008,08,21,22,24,13.30
2008,08,21,22,25,13.30
2008,08,21,22,26,13.30
2008,08,21,22,27,13.30
2008,08,21,22,28,13.20
2008,08,21,22,29,13.20
2008,08,21,22,30,13.20
2008,08,21,22,31,13.20
2008,08,21,22,32,13.20
2008,08,21,22,33,13.20
2008,08,21,22,34,13.20
2008,08,21,22,35,13.20
2008,08,21,22,36,13.20
2008,08,21,22,37,13.30
2008,08,21,22,38,13.30
2008,08,21,22,39,13.30
2008,08,21,22,40,13.20
2008,08,21,22,41,13.20
2008,08,21,22,42,13.20
2008,08,21,22,43,13.20